カタログに戻る

STARLINK-31800

運用中通信VLEO
NORAD 59643·PAYLOAD·🇺🇸 United States

打ち上げ May 3, 2024 から Cape Canaveral Space Force Station

Loading…

次のパス (今後24時間)

TLE

最新Source: CelesTrak SupGP

元期: Sep 14, 2026, 22:13 UTC

1 59643C 24082N   26257.92618056 -.00028727  00000+0 -10406-2 0  2579
2 59643  43.0006 151.2959 0001342 269.4442 347.4289 15.27588708    14

AllMySatでSTARLINK-31800をリアルタイム追跡

Download on the App Store